星链-5730 (STARLINK-5730 )

导读

STARLINK-5730是美国太空探索技术公司于2023年2月12日发射的星链(Starlink)低轨互联网卫星,运行于约550公里近地轨道。它配备相控阵天线与氩气推进系统,可支持高带宽宽带传输,通过星间激光互联构建全球卫星互联网,为全球用户提供低延迟高速网络服务,属于星链星座组网的组成部分。

基本信息
目录编号:
55611
目录名称:
STARLINK-5730
国际标识:
2023-020AU
轨道中心:
EARTH
卫星名称:
星链-5730
卫星全名:
星链-5730 (STARLINK-5730 )
卫星状态:
在轨 (已飞行1219 天)
发射日期:
2023-02-12 UTC
国别 :
美国 (US)
星等 :
--
轨道信息
数据来源 国际轨道数据 AOE轨道数据
星历时间 2026-06-15T01:06:47+0800
9小时前
查看轨道信息
2026-06-11T11:00:00+0800
3天前
查看轨道信息
半长轴 6861.21km 6861.189km
偏心率 0.0000893 0.0001937
轨道倾角 43.006° 43.004°
近地点辐角 294.468° 255.596°
升交点赤经 166.636° 186.898°
平近点角 65.608° 149.698°
近地点 482.46km 481.722km
远地点 483.686km 484.382km
周期 94.267分钟 94.267分钟
每日圈数 15.275721 15.275792
详细信息
固有亮度:
5
最大亮度:
2.5
卫星平台:
Starlink v1.5
覆盖范围:
全球
运营商:
太空探索技术公司
运营商所在国:
美国
制造商(研发单位):
太空探索技术公司
制造商所在国:
美国
使用方式:
暂无
卫星简介
星链(Starlink)计划是由太空探索技术公司(SpaceX)提出的一个巨型低轨卫星互联网星座项目,计划在2019年至2024年间在太空搭建由约1.2万颗卫星组成的“星链”网络,其中1584颗将部署在地球上空550千米处的近地轨道,并从2020年开始工作。该卫星仍在工作。
2D轨道图
3D轨道图
轨道高度分析图
轨道倾角分析图
轨道综合分析图
查看轨道综合分析图